Location: Palomar Mountain Lodge
(33.3110°N, 116.8495°W)
Time: 19:03:08
(UTC-07:00)

MetOp-A - Pass Details

Date: 19 May 2017
Orbit: 819 x 821 km, 98.7° (Epoch: 19 August)

Event Time Altitude Azimuth Distance (km) Brightness Sun altitude
Exits shadow 21:50:31 48° 162° (SSE) 1,054 4.3 -22.5°
Maximum altitude 21:52:04 87° 77° (ENE) 824 4.0 -22.7°
Drops below altitude 10° 21:57:26 10° 348° (NNW) 2,417 7.4 -23.5°
Sets 21:59:47 0° 348° (NNW) 3,354 8.3 -23.8°
